FW7625 Weather Reports


time (UTC)temp
C
wind
direction
speed
KPH
gust
KPH
rain 1hr
cm
rain 24hr
cm
rain mn
cm
humidity
%
barometer
mb
20260505101945 12 314 0.0 0.0 0.00 0.00 0.00 93 1014.3
20260505101444 12 282 0.0 0.0 0.00 0.00 0.00 93 1014.7
20260505100940 12 353 0.0 0.0 0.00 0.00 0.00 93 1014.0
20260505100437 12 334 0.0 0.0 0.00 0.00 0.00 93 1014.3
20260505095933 12 353 0.0 1.6 0.00 0.00 0.00 93 1014.3
20260505095430 12 284 1.6 1.6 0.00 0.00 0.00 93 1014.3
20260505094926 12 304 0.0 1.6 0.00 0.00 0.00 93 1014.3
20260505094423 12 265 0.0 1.6 0.00 0.00 0.00 93 1014.3
20260505093919 12 308 0.0 4.8 0.00 0.00 0.00 94 1014.3
20260505093416 12 304 0.0 1.6 0.00 0.00 0.00 94 1014.0
20260505092913 12 320 0.0 0.0 0.00 0.00 0.00 94 1014.3
20260505092411 12 294 0.0 1.6 0.00 0.00 0.00 95 1014.0
20260505091909 11 313 0.0 0.0 0.00 0.00 0.00 96 1014.0
20260505091406 11 316 0.0 0.0 0.00 0.00 0.00 96 1014.0
20260505090904 11 291 0.0 0.0 0.00 0.00 0.00 96 1014.0
20260505090402 11 338 0.0 0.0 0.00 0.00 0.00 96 1014.0
20260505085859 11 342 0.0 0.0 0.00 0.00 0.00 96 1014.0
20260505085357 11 309 0.0 0.0 0.00 0.00 0.00 96 1014.0
20260505084855 11 338 0.0 0.0 0.00 0.00 0.00 96 1014.0
20260505084353 11 339 0.0 0.0 0.00 0.00 0.00 96 1014.0
20260505083850 11 334 0.0 0.0 0.00 0.00 0.00 95 1014.0
20260505083348 11 338 0.0 0.0 0.00 0.00 0.00 95 1014.0
20260505082844 11 340 0.0 0.0 0.00 0.00 0.00 95 1014.0
20260505082340 11 344 0.0 0.0 0.00 0.00 0.00 95 1013.7
20260505081836 11 353 0.0 0.0 0.00 0.00 0.00 95 1014.0
20260505081333 11 43 0.0 1.6 0.00 0.00 0.00 95 1013.7
20260505080830 11 331 0.0 0.0 0.00 0.00 0.00 94 1014.0
20260505080326 11 316 0.0 0.0 0.00 0.00 0.00 94 1014.0
20260505075821 11 4 0.0 0.0 0.00 0.00 0.00 94 1013.7
20260505075319 11 344 0.0 0.0 0.00 0.00 0.00 94 1013.7
20260505074816 11 315 0.0 0.0 0.00 0.00 0.00 94 1013.7
20260505074313 11 304 0.0 0.0 0.00 0.00 0.00 94 1013.7
20260505073810 11 310 0.0 0.0 0.00 0.00 0.00 94 1013.7
20260505073308 11 298 0.0 0.0 0.00 0.00 0.00 94 1013.7
20260505072805 11 337 0.0 0.0 0.00 0.00 0.00 94 1013.3
20260505072301 11 340 0.0 0.0 0.00 0.00 0.00 94 1013.7
20260505071757 11 326 0.0 0.0 0.00 0.00 0.00 94 1013.3
20260505071253 12 334 0.0 0.0 0.00 0.00 0.00 93 1013.3
20260505070751 12 331 0.0 0.0 0.00 0.00 0.00 93 1013.3
20260505070248 12 336 0.0 0.0 0.00 0.00 0.00 93 1013.3
20260505065743 12 338 0.0 0.0 0.00 0.00 0.00 92 1013.0
20260505065240 12 323 0.0 0.0 0.00 0.00 0.00 92 1013.0
20260505064737 12 320 0.0 0.0 0.00 0.00 0.00 91 1013.0
20260505064235 12 311 0.0 0.0 0.00 0.00 0.00 91 1013.0
20260505063732 12 294 0.0 1.6 0.00 0.00 0.00 91 1013.0
20260505063228 12 292 0.0 1.6 0.00 0.00 0.00 90 1013.0
20260505062725 12 275 0.0 1.6 0.00 0.00 0.00 90 1013.0
20260505062223 12 301 0.0 1.6 0.00 0.00 0.00 90 1013.0
20260505061719 12 306 0.0 3.2 0.00 0.00 0.00 90 1013.0
20260505061217 12 312 0.0 1.6 0.00 0.00 0.00 89 1013.0
20260505060714 12 286 3.2 4.8 0.00 0.00 0.00 89 1013.0
20260505060211 13 296 0.0 0.0 0.00 0.00 0.00 89 1013.0
20260505055707 13 276 0.0 1.6 0.00 0.00 0.00 89 1012.7
20260505055203 13 135 1.6 3.2 0.00 0.00 0.00 88 1013.0
20260505054700 13 305 0.0 1.6 0.00 0.00 0.00 88 1012.7
20260505054158 13 309 0.0 3.2 0.00 0.00 0.00 87 1012.7
20260505053656 13 277 1.6 3.2 0.00 0.00 0.00 87 1012.7
20260505053152 13 292 0.0 1.6 0.00 0.00 0.00 86 1012.7
20260505052649 13 265 0.0 4.8 0.00 0.00 0.00 85 1012.7
20260505052147 14 283 0.0 1.6 0.00 0.00 0.00 85 1012.7
20260505051643 14 286 1.6 1.6 0.00 0.00 0.00 85 1012.7
20260505051142 14 281 0.0 1.6 0.00 0.00 0.00 85 1012.7
20260505050639 14 308 0.0 0.0 0.00 0.00 0.00 84 1012.7
20260505050137 15 275 0.0 1.6 0.00 0.00 0.00 83 1012.3
20260505041607 16 297 0.0 3.2 0.00 0.00 0.00 77 1012.0
20260505041104 16 209 1.6 3.2 0.00 0.00 0.00 76 1011.6
20260505040601 17 300 0.0 1.6 0.00 0.00 0.00 75 1011.6
20260505040058 17 300 1.6 4.8 0.00 0.00 0.00 75 1011.6
20260505035555 17 292 0.0 3.2 0.00 0.00 0.00 74 1011.6
20260505035051 17 316 0.0 3.2 0.00 0.00 0.00 74 1011.3
20260505034548 17 233 1.6 3.2 0.00 0.00 0.00 72 1011.3
20260505034044 17 298 0.0 3.2 0.00 0.00 0.00 72 1011.3
20260505033542 18 276 1.6 1.6 0.00 0.00 0.00 72 1011.3
20260505033040 18 264 1.6 4.8 0.00 0.00 0.00 71 1011.3
20260505032538 18 294 0.0 1.6 0.00 0.00 0.00 70 1011.0
20260505032034 18 309 0.0 3.2 0.00 0.00 0.00 69 1011.0
20260505031531 19 296 1.6 3.2 0.00 0.00 0.00 68 1011.0
20260505031027 20 264 1.6 4.8 0.00 0.00 0.00 67 1010.6
20260505030524 20 296 0.0 3.2 0.00 0.00 0.00 65 1011.0
20260505030020 20 269 1.6 4.8 0.00 0.00 0.00 65 1011.0
20260505025516 20 304 1.6 6.4 0.00 0.00 0.00 63 1010.6
20260505025016 21 280 1.6 4.8 0.00 0.00 0.00 62 1010.6
20260505024512 21 282 1.6 3.2 0.00 0.00 0.00 61 1010.6
20260505024009 21 280 1.6 3.2 0.00 0.00 0.00 59 1010.6
20260505023506 22 294 3.2 3.2 0.00 0.00 0.00 57 1010.6
20260505023004 22 289 0.0 4.8 0.00 0.00 0.00 56 1010.6
20260505022501 23 323 1.6 1.6 0.00 0.00 0.00 56 1010.6
20260505021958 23 274 0.0 3.2 0.00 0.00 0.00 56 1010.6
20260505021454 23 255 1.6 4.8 0.00 0.00 0.00 56 1010.6
20260505020950 24 251 1.6 3.2 0.00 0.00 0.00 56 1010.6
20260505020445 24 276 1.6 3.2 0.00 0.00 0.00 55 1010.6
20260505015943 25 314 1.6 3.2 0.00 0.00 0.00 54 1010.6
20260505015440 25 305 0.0 1.6 0.00 0.00 0.00 53 1010.6
20260505014937 25 282 1.6 1.6 0.00 0.00 0.00 53 1010.6
20260505014434 25 261 1.6 3.2 0.00 0.00 0.00 53 1010.6
20260505013931 25 301 0.0 4.8 0.00 0.00 0.00 54 1010.6
20260505013428 25 258 3.2 3.2 0.00 0.00 0.00 50 1010.6
20260505012925 25 321 0.0 3.2 0.00 0.00 0.00 50 1010.6
20260505012423 26 273 1.6 3.2 0.00 0.00 0.00 49 1010.6
20260505011919 25 252 1.6 4.8 0.00 0.00 0.00 49 1010.6
20260505011416 26 306 0.0 1.6 0.00 0.00 0.00 48 1010.6
20260505010913 25 199 1.6 3.2 0.00 0.00 0.00 49 1010.6
20260505010409 26 284 1.6 3.2 0.00 0.00 0.00 49 1010.6
20260505005904 26 259 1.6 3.2 0.00 0.00 0.00 48 1010.6
20260505005402 26 291 3.2 3.2 0.00 0.00 0.00 47 1010.6
20260505004859 27 257 1.6 3.2 0.00 0.00 0.00 44 1010.6
20260505004355 26 270 0.0 3.2 0.00 0.00 0.00 44 1011.0
20260505003853 27 282 1.6 3.2 0.00 0.00 0.00 44 1011.0
20260505003350 27 328 0.0 1.6 0.00 0.00 0.00 44 1010.6
20260505002845 26 289 3.2 3.2 0.00 0.00 0.00 41 1010.6
20260505002342 26 354 1.6 3.2 0.00 0.00 0.00 45 1011.0
20260505001841 26 294 0.0 3.2 0.00 0.00 0.00 43 1010.6
20260505001338 27 48 0.0 3.2 0.00 0.00 0.00 43 1010.6
20260505000835 27 293 1.6 3.2 0.00 0.00 0.00 41 1011.0
20260505000333 27 338 0.0 6.4 0.00 0.00 0.00 41 1011.0
20260504235829 27 246 1.6 3.2 0.00 0.00 0.00 41 1011.0
20260504235326 26 268 1.6 4.8 0.00 0.00 0.00 40 1010.6
20260504234823 27 258 1.6 3.2 0.00 0.00 0.00 39 1011.0
20260504234321 27 195 3.2 6.4 0.00 0.00 0.00 35 1010.6
20260504233817 27 299 0.0 1.6 0.00 0.00 0.00 36 1011.0
20260504233313 27 270 1.6 3.2 0.00 0.00 0.00 37 1010.6
20260504232809 27 38 0.0 1.6 0.00 0.00 0.00 40 1010.6
20260504232307 26 261 3.2 3.2 0.00 0.00 0.00 39 1011.0
20260504231804 26 310 1.6 4.8 0.00 0.00 0.00 37 1011.0
20260504231300 27 294 1.6 4.8 0.00 0.00 0.00 37 1011.0
20260504230756 26 265 3.2 4.8 0.00 0.00 0.00 35 1011.0
20260504230254 27 296 0.0 3.2 0.00 0.00 0.00 35 1011.0
20260504225753 26 342 0.0 3.2 0.00 0.00 0.00 38 1011.0
20260504225249 26 293 1.6 3.2 0.00 0.00 0.00 38 1011.0
20260504224746 26 302 1.6 4.8 0.00 0.00 0.00 35 1011.0
20260504224243 27 321 0.0 3.2 0.00 0.00 0.00 37 1011.3
20260504223739 26 271 3.2 4.8 0.00 0.00 0.00 38 1011.3
20260504223235 26 318 0.0 3.2 0.00 0.00 0.00 38 1011.3
20260504222732 26 314 0.0 3.2 0.00 0.00 0.00 36 1011.3
20260504222229 26 271 3.2 4.8 0.00 0.00 0.00 37 1011.0
20260504221727 26 272 3.2 3.2 0.00 0.00 0.00 38 1011.3
20260504221223 26 308 1.6 3.2 0.00 0.00 0.00 37 1011.6
20260504220720 26 259 1.6 3.2 0.00 0.00 0.00 37 1011.3
20260504220218 26 311 1.6 3.2 0.00 0.00 0.00 40 1011.6
20260504215714 26 84 1.6 3.2 0.00 0.00 0.00 37 1011.6
20260504215211 25 284 1.6 4.8 0.00 0.00 0.00 39 1011.6
20260504214707 25 302 1.6 3.2 0.00 0.00 0.00 40 1011.3
20260504214204 25 296 3.2 6.4 0.00 0.00 0.00 38 1011.6
20260504213700 26 359 0.0 3.2 0.00 0.00 0.00 43 1011.6
20260504213157 26 290 1.6 3.2 0.00 0.00 0.00 43 1011.6
20260504212654 25 199 1.6 3.2 0.00 0.00 0.00 41 1011.3
20260504212150 25 268 1.6 3.2 0.00 0.00 0.00 44 1011.6
20260504211648 25 274 1.6 4.8 0.00 0.00 0.00 41 1011.6
20260504211144 25 257 1.6 3.2 0.00 0.00 0.00 45 1011.6
20260504210642 25 218 3.2 3.2 0.00 0.00 0.00 44 1011.6
20260504210138 25 321 0.0 4.8 0.00 0.00 0.00 45 1011.6
20260504205636 24 304 1.6 3.2 0.00 0.00 0.00 44 1011.6
20260504205133 24 310 0.0 4.8 0.00 0.00 0.00 43 1011.6
20260504204631 24 292 1.6 4.8 0.00 0.00 0.00 44 1011.6
20260504204130 24 265 3.2 3.2 0.00 0.00 0.00 44 1011.6
20260504203628 23 253 1.6 3.2 0.00 0.00 0.00 51 1012.0
20260504203126 24 200 3.2 3.2 0.00 0.00 0.00 46 1011.6
20260504202626 23 244 3.2 4.8 0.00 0.00 0.00 47 1011.6
20260504202123 24 305 0.0 4.8 0.00 0.00 0.00 48 1011.6
20260504201619 24 288 1.6 3.2 0.00 0.00 0.00 49 1011.6
20260504201117 23 234 1.6 3.2 0.00 0.00 0.00 50 1011.6
20260504200614 23 292 3.2 4.8 0.00 0.00 0.00 49 1011.6
20260504200111 23 301 0.0 3.2 0.00 0.00 0.00 51 1011.6
20260504195607 23 168 3.2 3.2 0.00 0.00 0.00 49 1012.0
20260504195103 23 283 0.0 3.2 0.00 0.00 0.00 52 1012.0
20260504194600 23 333 0.0 1.6 0.00 0.00 0.00 52 1012.0
20260504194055 22 276 3.2 4.8 0.00 0.00 0.00 53 1012.0
20260504193552 23 229 3.2 4.8 0.00 0.00 0.00 51 1012.0
20260504193051 22 240 0.0 3.2 0.00 0.00 0.00 53 1012.0
20260504192549 22 320 0.0 4.8 0.00 0.00 0.00 54 1012.0
20260504192046 23 285 1.6 4.8 0.00 0.00 0.00 52 1012.0
20260504191544 23 315 0.0 3.2 0.00 0.00 0.00 54 1012.3
20260504191040 23 266 1.6 1.6 0.00 0.00 0.00 54 1012.0
20260504190537 22 266 1.6 3.2 0.00 0.00 0.00 55 1012.0
20260504190033 22 274 1.6 3.2 0.00 0.00 0.00 56 1012.0
20260504185530 22 289 1.6 3.2 0.00 0.00 0.00 55 1012.0
20260504185026 22 323 0.0 3.2 0.00 0.00 0.00 55 1012.0
20260504184522 22 304 1.6 3.2 0.00 0.00 0.00 55 1012.3
20260504184017 22 254 3.2 3.2 0.00 0.00 0.00 54 1012.0
20260504183515 22 303 1.6 4.8 0.00 0.00 0.00 55 1012.0
20260504183013 21 239 1.6 4.8 0.00 0.00 0.00 51 1012.0
20260504182509 22 183 1.6 3.2 0.00 0.00 0.00 54 1012.3
20260504182007 22 279 0.0 3.2 0.00 0.00 0.00 55 1012.3
20260504181504 22 253 0.0 3.2 0.00 0.00 0.00 51 1012.3
20260504181003 22 299 0.0 1.6 0.00 0.00 0.00 54 1012.3
20260504180501 22 252 1.6 3.2 0.00 0.00 0.00 53 1012.3
20260504175959 21 267 3.2 4.8 0.00 0.00 0.00 57 1012.3
20260504175456 22 15 0.0 3.2 0.00 0.00 0.00 52 1012.3
20260504174953 22 267 0.0 3.2 0.00 0.00 0.00 52 1012.3
20260504174450 21 306 0.0 3.2 0.00 0.00 0.00 54 1012.3
20260504173947 22 1 0.0 4.8 0.00 0.00 0.00 57 1012.3
20260504173444 21 300 0.0 1.6 0.00 0.00 0.00 58 1012.0
20260504172942 21 302 0.0 3.2 0.00 0.00 0.00 56 1012.0
20260504172437 21 339 0.0 3.2 0.00 0.00 0.00 57 1012.0
20260504171934 21 342 0.0 1.6 0.00 0.00 0.00 60 1012.0
20260504171431 21 304 0.0 1.6 0.00 0.00 0.00 58 1012.0
20260504170928 21 323 1.6 3.2 0.00 0.00 0.00 56 1012.0
20260504170424 21 242 1.6 1.6 0.00 0.00 0.00 59 1012.0
20260504160343 18 294 1.6 3.2 0.00 0.00 0.00 65 1011.6
20260504150808 18 325 0.0 1.6 0.00 0.00 0.00 60 1011.3
20260504150305 17 316 0.0 3.2 0.00 0.00 0.00 61 1011.3
20260504141235 13 23 0.0 0.0 0.00 0.00 0.00 82 1011.0
20260504140731 12 9 0.0 0.0 0.00 0.00 0.00 83 1011.0
20260504140227 12 12 0.0 0.0 0.00 0.00 0.00 83 1011.3
20260504130655 11 29 0.0 0.0 0.00 0.00 0.00 88 1010.3
20260504130151 10 6 0.0 0.0 0.00 0.00 0.00 90 1010.3
20260504120116 11 31 0.0 0.0 0.00 0.00 0.00 85 1010.3
20260504110543 11 23 0.0 0.0 0.00 0.00 0.00 90 1010.6